Погода в Шапошниково

Россия / Оренбургская область     51°41′36″N   51°17′34″E
темп.,
°C
ветер,
м/с
пор.,
м/с
влажн.,
%
обл.,
%
осадки,
мм/ч
давл.,
гПа
погр.,
м
20 апреля, вт
вт2023:00+5вюв81370100 0.0 1023908
02:00+4в91561100 0.0 1024824
05:00+4в81457100 0.0 1025780
08:00+3в9145394 0.0 1027707
11:00+5вюв10134522 0.0 1028847
14:00+9вюв10124016 0.0 10271183
17:00+10вюв101139100 0.0 10261369
20:00+8вюв91344100 0.0 1025816
21 апреля, ср
ср2123:00+6вюв8164580 0.0 1026595
02:00+5вюв91749100 0.0 1026609
05:00+3вюв81653100 0.0 1027578
08:00+4юв91652100 0.0 1026652
11:00+4юв81550100 0.1 1026754
14:00+4ююв81568100 0.9 1026785
17:00+2юв71593100 4.3 1027688
20:00+3ююв71591100 3.2 1026848
22 апреля, чт
чт2223:00+4ююв71588100 4.9 1026673
02:00+4ююв51391100 0.9 1026516
05:00+4юв51295100 7.3 1026455
08:00+4ююв51190100 0.8 1027432
11:00+5ююв61194100 1.8 1028506
14:00+5юв51090100 1.0 1028475
17:00+5юв51084100 1.5 1028498
20:00+5вюв51093100 0.1 1028468
23 апреля, пт
пт2323:00+5вюв5996100 0.1 1027447
02:00+5юв3698100 0.1 1026260
05:00+5в2297100 0.1 102672
08:00+6всв2693100 0.0 1026222
11:00+10всв5665100 0.0 1025577
14:00+13в5552100 0.0 1024970
17:00+12юв4558100 0.0 1023875
20:00+10юв4773100 0.0 1022319
24 апреля, сб
сб2423:00+8вюв2790100 0.3 1021378
02:00+7всв3693100 0.6 1019396
05:00+7ссв4694100 1.9 1017354
08:00+6ссв4894100 0.6 1015479
11:00+7с3491100 1.5 1014327
14:00+8ссз4583100 0.6 1015931
17:00+8сз4684100 0.6 1015950
20:00+8сз368673 0.0 1015383